| time (UTC) | temp F | wind direction | speed MPH | gust MPH | rain 1hr in | rain 24hr in | rain mn in | humidity % | barometer mb |
| 20260507204540 | 69 | 196 | 3.0 | 13.0 | 0.00 | 0.00 | 0.00 | 54 | 1015.8 |
| 20260507203034 | 69 | 156 | 5.0 | 10.0 | 0.00 | 0.00 | 0.00 | 55 | 1016.2 |
| 20260507201528 | 68 | 217 | 5.0 | 12.0 | 0.00 | 0.00 | 0.00 | 54 | 1016.4 |
| 20260507200025 | 68 | 312 | 4.0 | 12.0 | 0.00 | 0.00 | 0.00 | 54 | 1016.7 |
| 20260507194533 | 68 | 227 | 5.0 | 12.0 | 0.00 | 0.00 | 0.00 | 53 | 1017.1 |
| 20260507193021 | 68 | 205 | 3.0 | 9.0 | 0.00 | 0.00 | 0.00 | 54 | 1017.4 |
| 20260507191519 | 67 | 273 | 3.0 | 11.0 | 0.00 | 0.00 | 0.00 | 55 | 1017.6 |
| 20260507190020 | 66 | 166 | 4.0 | 12.0 | 0.00 | 0.00 | 0.00 | 54 | 1017.7 |
| 20260507184521 | 67 | 61 | 2.0 | 9.0 | 0.00 | 0.00 | 0.00 | 54 | 1017.8 |
| 20260507183015 | 66 | 325 | 7.0 | 18.0 | 0.00 | 0.00 | 0.00 | 54 | 1017.9 |
| 20260507181511 | 67 | 229 | 3.0 | 9.0 | 0.00 | 0.00 | 0.00 | 54 | 1018.1 |
| 20260507180015 | 66 | 214 | 3.0 | 8.0 | 0.00 | 0.00 | 0.00 | 52 | 1018.3 |
| 20260507174511 | 66 | 205 | 3.0 | 9.0 | 0.00 | 0.00 | 0.00 | 54 | 1018.5 |
| 20260507173011 | 66 | 312 | 3.0 | 9.0 | 0.00 | 0.00 | 0.00 | 56 | 1018.8 |
| 20260507171601 | 65 | 234 | 4.0 | 9.0 | 0.00 | 0.00 | 0.00 | 57 | 1019.1 |
| 20260507170100 | 64 | 297 | 4.0 | 13.0 | 0.00 | 0.00 | 0.00 | 55 | 1019.2 |
| 20260507164629 | 64 | 139 | 3.0 | 8.0 | 0.00 | 0.00 | 0.00 | 56 | 1019.6 |
| 20260507163056 | 64 | 218 | 2.0 | 8.0 | 0.00 | 0.00 | 0.00 | 56 | 1019.8 |
| 20260507161557 | 63 | 275 | 4.0 | 14.0 | 0.00 | 0.00 | 0.00 | 55 | 1019.9 |
| 20260507160050 | 63 | 220 | 2.0 | 9.0 | 0.00 | 0.00 | 0.00 | 56 | 1019.9 |
| 20260507154551 | 62 | 158 | 3.0 | 8.0 | 0.00 | 0.00 | 0.00 | 57 | 1019.8 |
| 20260507153046 | 62 | 220 | 1.0 | 9.0 | 0.00 | 0.00 | 0.00 | 58 | 1019.9 |
| 20260507151546 | 61 | 138 | 0.0 | 8.0 | 0.00 | 0.00 | 0.00 | 60 | 1020.0 |
| 20260507150045 | 60 | 129 | 2.0 | 9.0 | 0.00 | 0.00 | 0.00 | 60 | 1020.3 |
| 20260507144540 | 60 | 168 | 2.0 | 8.0 | 0.00 | 0.00 | 0.00 | 63 | 1020.6 |
| 20260507143041 | 59 | 146 | 1.0 | 6.0 | 0.00 | 0.00 | 0.00 | 64 | 1020.3 |
| 20260507141534 | 58 | 158 | 0.0 | 4.0 | 0.00 | 0.00 | 0.00 | 66 | 1020.5 |
| 20260507140029 | 57 | 158 | 1.0 | 5.0 | 0.00 | 0.00 | 0.00 | 67 | 1020.6 |
| 20260507134526 | 56 | 221 | 1.0 | 5.0 | 0.00 | 0.00 | 0.00 | 67 | 1020.7 |
| 20260507133025 | 54 | 221 | 1.0 | 4.0 | 0.00 | 0.00 | 0.00 | 72 | 1020.6 |
| 20260507131519 | 53 | 195 | 0.0 | 5.0 | 0.00 | 0.00 | 0.00 | 75 | 1020.6 |
| 20260507130014 | 52 | 146 | 0.0 | 2.0 | 0.00 | 0.00 | 0.00 | 79 | 1020.6 |
| 20260507124513 | 50 | 136 | 0.0 | 2.0 | 0.00 | 0.00 | 0.00 | 84 | 1020.6 |
| 20260507123006 | 48 | 132 | 0.0 | 2.0 | 0.00 | 0.00 | 0.00 | 91 | 1020.4 |
| 20260507121505 | 0 | 0.0 | 0.0 | 0.00 | 0.00 | 0.00 | 1020.4 | ||
| 20260507120058 | 0 | 0.0 | 0.0 | 0.00 | 0.00 | 0.00 | 1020.2 | ||
| 20260507114607 | 0 | 0.0 | 0.0 | 0.00 | 0.00 | 0.00 | 1020.1 | ||
| 20260507113112 | 41 | 148 | 0.0 | 0.0 | 0.00 | 0.00 | 0.00 | 95 | 1020.1 |
| 20260507111555 | 42 | 148 | 0.0 | 0.0 | 0.00 | 0.00 | 0.00 | 95 | 1020.1 |
| 20260507110050 | 43 | 148 | 0.0 | 0.0 | 0.00 | 0.00 | 0.00 | 94 | 1020.1 |
| 20260507104549 | 44 | 148 | 0.0 | 0.0 | 0.00 | 0.00 | 0.00 | 94 | 1019.9 |
| 20260507103053 | 44 | 148 | 0.0 | 0.0 | 0.00 | 0.00 | 0.00 | 94 | 1019.8 |
| 20260507101549 | 45 | 148 | 0.0 | 0.0 | 0.00 | 0.00 | 0.00 | 95 | 1019.9 |
| 20260507100046 | 44 | 148 | 0.0 | 0.0 | 0.00 | 0.00 | 0.00 | 94 | 1019.8 |
| 20260507094545 | 44 | 148 | 0.0 | 0.0 | 0.00 | 0.00 | 0.00 | 94 | 1019.9 |
| 20260507093048 | 44 | 148 | 0.0 | 0.0 | 0.00 | 0.00 | 0.00 | 94 | 1019.9 |
| 20260507091544 | 44 | 148 | 0.0 | 0.0 | 0.00 | 0.00 | 0.00 | 94 | 1019.8 |
| 20260507090041 | 43 | 148 | 0.0 | 0.0 | 0.00 | 0.00 | 0.00 | 94 | 1019.7 |
| 20260507084545 | 43 | 148 | 0.0 | 0.0 | 0.00 | 0.00 | 0.00 | 95 | 1020.1 |
| 20260507083039 | 42 | 148 | 0.0 | 0.0 | 0.00 | 0.00 | 0.00 | 95 | 1020.0 |
| 20260507081544 | 41 | 148 | 0.0 | 0.0 | 0.00 | 0.00 | 0.00 | 95 | 1019.9 |
| 20260507080036 | 41 | 293 | 0.0 | 0.0 | 0.00 | 0.00 | 0.00 | 95 | 1020.2 |
| 20260507074537 | 40 | 293 | 0.0 | 0.0 | 0.00 | 0.00 | 0.00 | 95 | 1020.1 |
| 20260507073035 | 40 | 293 | 0.0 | 0.0 | 0.00 | 0.00 | 0.00 | 94 | 1020.0 |
| 20260507071532 | 40 | 293 | 0.0 | 0.0 | 0.00 | 0.00 | 0.00 | 94 | 1020.1 |
| 20260507070031 | 41 | 292 | 0.0 | 0.0 | 0.00 | 0.00 | 0.00 | 94 | 1020.3 |
| 20260507064529 | 41 | 293 | 0.0 | 0.0 | 0.00 | 0.00 | 0.00 | 94 | 1020.3 |
| 20260507063028 | 41 | 293 | 0.0 | 0.0 | 0.00 | 0.00 | 0.00 | 93 | 1020.6 |
| 20260507061526 | 42 | 293 | 0.0 | 0.0 | 0.00 | 0.00 | 0.00 | 93 | 1020.7 |
| 20260507060023 | 42 | 293 | 0.0 | 0.0 | 0.00 | 0.00 | 0.00 | 92 | 1020.5 |
| 20260507054521 | 42 | 292 | 0.0 | 0.0 | 0.00 | 0.00 | 0.00 | 92 | 1020.5 |
| 20260507053019 | 43 | 292 | 0.0 | 0.0 | 0.00 | 0.00 | 0.00 | 91 | 1020.5 |
| 20260507051518 | 43 | 293 | 0.0 | 0.0 | 0.00 | 0.00 | 0.00 | 91 | 1020.5 |
| 20260507050024 | 43 | 293 | 0.0 | 0.0 | 0.00 | 0.00 | 0.00 | 90 | 1020.5 |
| 20260507044514 | 44 | 293 | 0.0 | 0.0 | 0.00 | 0.00 | 0.00 | 90 | 1020.5 |
| 20260507043020 | 44 | 293 | 0.0 | 0.0 | 0.00 | 0.00 | 0.00 | 89 | 1020.4 |
| 20260507041510 | 44 | 293 | 0.0 | 0.0 | 0.00 | 0.00 | 0.00 | 88 | 1020.4 |
| 20260507040009 | 44 | 294 | 0.0 | 0.0 | 0.00 | 0.00 | 0.00 | 88 | 1020.3 |
| 20260507034517 | 45 | 326 | 0.0 | 0.0 | 0.00 | 0.00 | 0.00 | 87 | 1020.3 |
| 20260507033008 | 45 | 328 | 0.0 | 0.0 | 0.00 | 0.00 | 0.00 | 86 | 1020.2 |
| 20260507031507 | 46 | 329 | 0.0 | 0.0 | 0.00 | 0.00 | 0.00 | 84 | 1020.0 |
| 20260507030009 | 47 | 338 | 0.0 | 0.0 | 0.00 | 0.00 | 0.00 | 82 | 1019.9 |
| 20260507024513 | 48 | 11 | 0.0 | 0.0 | 0.00 | 0.00 | 0.00 | 79 | 1019.9 |
| 20260507023008 | 49 | 15 | 0.0 | 0.0 | 0.00 | 0.00 | 0.00 | 76 | 1019.8 |
| 20260507021509 | 51 | 15 | 0.0 | 0.0 | 0.00 | 0.00 | 0.00 | 72 | 1019.8 |
| 20260507020006 | 53 | 17 | 0.0 | 0.0 | 0.00 | 0.00 | 0.00 | 65 | 1019.7 |
| 20260507014505 | 55 | 17 | 0.0 | 0.0 | 0.00 | 0.00 | 0.00 | 64 | 1019.3 |
| 20260507013005 | 56 | 17 | 0.0 | 4.0 | 0.00 | 0.00 | 0.00 | 58 | 1019.1 |
| 20260507011506 | 57 | 9 | 3.0 | 7.0 | 0.00 | 0.00 | 0.00 | 56 | 1019.1 |
| 20260507010005 | 58 | 339 | 3.0 | 9.0 | 0.00 | 0.00 | 0.00 | 55 | 1019.0 |
| 20260507004503 | 59 | 29 | 5.0 | 10.0 | 0.00 | 0.00 | 0.00 | 53 | 1018.9 |
| 20260507003002 | 60 | 350 | 4.0 | 11.0 | 0.00 | 0.00 | 0.00 | 52 | 1018.6 |
| 20260507001505 | 60 | 55 | 8.0 | 12.0 | 0.00 | 0.00 | 0.00 | 52 | 1018.6 |
| 20260507000002 | 60 | 31 | 7.0 | 14.0 | 0.00 | 0.00 | 0.00 | 53 | 1018.4 |
| 20260506234501 | 60 | 17 | 7.0 | 13.0 | 0.00 | 0.00 | 0.00 | 54 | 1018.2 |
| 20260506233102 | 60 | 17 | 4.0 | 12.0 | 0.00 | 0.00 | 0.00 | 54 | 1018.1 |
| 20260506231607 | 61 | 55 | 5.0 | 11.0 | 0.00 | 0.00 | 0.00 | 53 | 1018.0 |
| 20260506230114 | 61 | 10 | 5.0 | 11.0 | 0.00 | 0.00 | 0.00 | 54 | 1018.2 |
| 20260506224559 | 60 | 18 | 6.0 | 15.0 | 0.00 | 0.00 | 0.00 | 54 | 1018.1 |
| 20260506223103 | 60 | 21 | 4.0 | 9.0 | 0.00 | 0.00 | 0.00 | 54 | 1018.4 |
| 20260506221610 | 60 | 14 | 5.0 | 13.0 | 0.00 | 0.00 | 0.00 | 53 | 1018.2 |
| 20260506220058 | 60 | 31 | 5.0 | 13.0 | 0.00 | 0.00 | 0.00 | 53 | 1018.3 |
| 20260506214556 | 61 | 328 | 6.0 | 12.0 | 0.00 | 0.00 | 0.00 | 53 | 1018.3 |
| 20260506213057 | 61 | 63 | 6.0 | 13.0 | 0.00 | 0.00 | 0.00 | 54 | 1018.4 |
| 20260506211554 | 62 | 30 | 7.0 | 14.0 | 0.00 | 0.00 | 0.00 | 52 | 1018.5 |
| 20260506210057 | 61 | 338 | 8.0 | 15.0 | 0.00 | 0.00 | 0.00 | 53 | 1018.6 |